YD6HRD-13 Weather Reports


time (UTC)temp
C
wind
direction
speed
KPH
gust
KPH
rain 1hr
cm
rain 24hr
cm
rain mn
cm
humidity
%
barometer
mb
20260502233222 27 0.0 0.0 0.00 0.00 0.00 89 1019.4
20260502232722 27 0.0 0.0 0.00 0.00 0.00 89 1019.4
20260502232222 26 0.0 0.0 0.00 0.00 0.00 91 1019.4
20260502231722 27 0.0 0.0 0.00 0.00 0.00 89 1019.3
20260502231222 27 0.0 0.0 0.00 0.00 0.00 90 1019.4
20260502230721 27 0.0 0.0 0.00 0.00 0.00 89 1019.3
20260502230222 27 0.0 0.0 0.00 0.00 0.00 90 1019.3
20260502225722 27 0.0 0.0 0.00 0.00 0.00 88 1019.3
20260502225221 27 0.0 0.0 0.00 0.00 0.00 89 1019.2
20260502224722 27 0.0 0.0 0.00 0.00 0.00 89 1019.1
20260502224222 27 0.0 0.0 0.00 0.00 0.00 89 1019.0
20260502223722 27 0.0 0.0 0.00 0.00 0.00 88 1019.0
20260502223221 27 0.0 0.0 0.00 0.00 0.00 89 1019.0
20260502222722 27 0.0 0.0 0.00 0.00 0.00 88 1018.9
20260502222222 27 0.0 0.0 0.00 0.00 0.00 88 1018.9
20260502221722 27 0.0 0.0 0.00 0.00 0.00 88 1018.7
20260502221222 27 0.0 0.0 0.00 0.00 0.00 88 1018.7
20260502220722 27 0.0 0.0 0.00 0.00 0.00 88 1018.7
20260502220222 27 0.0 0.0 0.00 0.00 0.00 88 1018.7
20260502215721 27 0.0 0.0 0.00 0.00 0.00 88 1018.6
20260502215222 27 0.0 0.0 0.00 0.00 0.00 88 1018.6
20260502214722 27 0.0 0.0 0.00 0.00 0.00 89 1018.6
20260502214221 27 0.0 0.0 0.00 0.00 0.00 88 1018.6
20260502213722 27 0.0 0.0 0.00 0.00 0.00 88 1018.5
20260502213222 27 0.0 0.0 0.00 0.00 0.00 89 1018.4
20260502212721 27 0.0 0.0 0.00 0.00 0.00 88 1018.4
20260502211722 28 0.0 0.0 0.00 0.00 0.00 88 1018.4
20260502211223 28 0.0 0.0 0.00 0.00 0.00 87 1018.4
20260502210722 28 0.0 0.0 0.00 0.00 0.00 88 1018.4
20260502210222 28 0.0 0.0 0.00 0.00 0.00 87 1018.5
20260502205722 28 0.0 0.0 0.00 0.00 0.00 87 1018.5
20260502205221 28 0.0 0.0 0.00 0.00 0.00 87 1018.5
20260502204722 28 0.0 0.0 0.00 0.00 0.00 88 1018.4
20260502204221 28 0.0 0.0 0.00 0.00 0.00 87 1018.5
20260502203722 27 0.0 0.0 0.00 0.00 0.00 90 1018.6
20260502203221 27 0.0 0.0 0.00 0.00 0.00 91 1018.7
20260502202722 27 0.0 0.0 0.00 0.00 0.00 91 1018.8
20260502202222 27 0.0 0.0 0.00 0.00 0.00 91 1018.9
20260502201721 27 0.0 0.0 0.00 0.00 0.00 92 1018.9
20260502201222 27 0.0 0.0 0.00 0.00 0.00 91 1019.0
20260502200722 27 0.0 0.0 0.00 0.00 0.00 91 1019.0
20260502200222 27 0.0 0.0 0.00 0.00 0.00 91 1019.0
20260502195722 27 0.0 0.0 0.00 0.00 0.00 91 1019.0
20260502195222 27 0.0 0.0 0.00 0.00 0.00 91 1019.0
20260502194722 27 0.0 0.0 0.00 0.00 0.00 91 1019.0
20260502194221 27 0.0 0.0 0.00 0.00 0.00 91 1019.2
20260502193722 27 0.0 0.0 0.00 0.00 0.00 91 1019.2
20260502193222 27 0.0 0.0 0.00 0.00 0.00 91 1019.3
20260502192722 27 0.0 0.0 0.00 0.00 0.00 91 1019.3
20260502192221 27 0.0 0.0 0.00 0.00 0.00 91 1019.3
20260502191722 27 0.0 0.0 0.00 0.00 0.00 90 1019.3
20260502191222 27 0.0 0.0 0.00 0.00 0.00 90 1019.3
20260502190721 27 0.0 0.0 0.00 0.00 0.00 90 1019.4
20260502190222 27 0.0 0.0 0.00 0.00 0.00 91 1019.4
20260502185722 27 0.0 0.0 0.00 0.00 0.00 90 1019.4
20260502185222 27 0.0 0.0 0.00 0.00 0.00 89 1019.5
20260502184721 27 0.0 0.0 0.00 0.00 0.00 89 1019.6
20260502184222 27 0.0 0.0 0.00 0.00 0.00 89 1019.6
20260502183722 27 0.0 0.0 0.00 0.00 0.00 88 1019.7
20260502183221 27 0.0 0.0 0.00 0.00 0.00 89 1019.7
20260502182722 27 0.0 0.0 0.00 0.00 0.00 90 1019.7
20260502182221 27 0.0 0.0 0.00 0.00 0.00 89 1019.8
20260502181722 27 0.0 0.0 0.00 0.00 0.00 89 1019.8
20260502181221 28 0.0 0.0 0.00 0.00 0.00 86 1019.9
20260502180722 28 0.0 0.0 0.00 0.00 0.00 87 1020.0
20260502180222 28 0.0 0.0 0.00 0.00 0.00 87 1020.0
20260502170222 28 0.0 0.0 0.00 0.00 0.00 87 1020.6
20260502164222 28 0.0 0.0 0.00 0.00 0.00 87 1020.8
20260502163722 28 0.0 0.0 0.00 0.00 0.00 86 1020.9
20260502163221 28 0.0 0.0 0.00 0.00 0.00 86 1021.0
20260502162722 28 0.0 0.0 0.00 0.00 0.00 87 1021.1
20260502162222 28 0.0 0.0 0.00 0.00 0.00 88 1021.2
20260502161721 28 0.0 0.0 0.00 0.00 0.00 87 1021.1
20260502161222 28 0.0 0.0 0.00 0.00 0.00 87 1021.1
20260502160722 28 0.0 0.0 0.00 0.00 0.00 87 1021.1
20260502160222 28 0.0 0.0 0.00 0.00 0.00 87 1021.2
20260502152222 28 0.0 0.0 0.00 0.00 0.00 86 1021.0
20260502151721 28 0.0 0.0 0.00 0.00 0.00 87 1020.9
20260502151222 28 0.0 0.0 0.00 0.00 0.00 86 1020.8
20260502150722 28 0.0 0.0 0.00 0.00 0.00 85 1020.9
20260502150221 29 0.0 0.0 0.00 0.00 0.00 85 1020.9
20260502130722 29 0.0 0.0 0.00 0.00 0.00 85 1019.3
20260502130221 29 0.0 0.0 0.00 0.00 0.00 84 1019.3
20260502123721 30 0.0 0.0 0.00 0.00 0.00 85 1019.2
20260502123224 30 0.0 0.0 0.00 0.00 0.00 84 1019.1
20260502122721 30 0.0 0.0 0.00 0.00 0.00 85 1018.9
20260502122222 30 0.0 0.0 0.00 0.00 0.00 85 1019.0
20260502121721 30 0.0 0.0 0.00 0.00 0.00 84 1019.0
20260502121222 30 0.0 0.0 0.00 0.00 0.00 84 1019.0
20260502120721 30 0.0 0.0 0.00 0.00 0.00 84 1018.9
20260502120221 30 0.0 0.0 0.00 0.00 0.00 84 1018.8
20260502115721 30 0.0 0.0 0.00 0.00 0.00 84 1018.7
20260502115222 30 0.0 0.0 0.00 0.00 0.00 84 1018.6
20260502114722 30 0.0 0.0 0.00 0.00 0.00 84 1018.5
20260502114221 30 0.0 0.0 0.00 0.00 0.00 84 1018.4
20260502113722 30 0.0 0.0 0.00 0.00 0.00 85 1018.2
20260502113221 30 0.0 0.0 0.00 0.00 0.00 85 1018.0
20260502112721 30 0.0 0.0 0.00 0.00 0.00 85 1018.0
20260502112222 30 0.0 0.0 0.00 0.00 0.00 86 1018.1
20260502111722 30 0.0 0.0 0.00 0.00 0.00 86 1018.1
20260502111222 30 0.0 0.0 0.00 0.00 0.00 86 1018.1
20260502110721 30 0.0 0.0 0.00 0.00 0.00 85 1017.9
20260502110222 30 0.0 0.0 0.00 0.00 0.00 84 1017.8
20260502105722 30 0.0 0.0 0.00 0.00 0.00 84 1017.6
20260502105221 30 0.0 0.0 0.00 0.00 0.00 84 1017.5
20260502104722 30 0.0 0.0 0.00 0.00 0.00 84 1017.5
20260502104222 30 0.0 0.0 0.00 0.00 0.00 84 1017.4
20260502103721 30 0.0 0.0 0.00 0.00 0.00 84 1017.4
20260502103222 30 0.0 0.0 0.00 0.00 0.00 84 1017.2
20260502102722 30 0.0 0.0 0.00 0.00 0.00 84 1017.1
20260502102222 30 0.0 0.0 0.00 0.00 0.00 83 1017.1
20260502101721 30 0.0 0.0 0.00 0.00 0.00 83 1016.9
20260502101222 30 0.0 0.0 0.00 0.00 0.00 84 1016.8
20260502100722 30 0.0 0.0 0.00 0.00 0.00 84 1016.8
20260502100221 30 0.0 0.0 0.00 0.00 0.00 84 1016.7
20260502091221 31 0.0 0.0 0.00 0.00 0.00 83 1016.5
20260502090722 30 0.0 0.0 0.00 0.00 0.00 84 1016.5
20260502090222 31 0.0 0.0 0.00 0.00 0.00 84 1016.6
20260502071222 30 0.0 0.0 0.00 0.00 0.00 84 1018.5
20260502070721 30 0.0 0.0 0.00 0.00 0.00 85 1018.5
20260502070222 30 0.0 0.0 0.00 0.00 0.00 84 1018.6
20260502065721 30 0.0 0.0 0.00 0.00 0.00 85 1018.7
20260502065221 30 0.0 0.0 0.00 0.00 0.00 86 1018.9
20260502064721 30 0.0 0.0 0.00 0.00 0.00 85 1018.8
20260502064222 30 0.0 0.0 0.00 0.00 0.00 85 1018.9
20260502063722 29 0.0 0.0 0.00 0.00 0.00 85 1019.1
20260502063221 29 0.0 0.0 0.00 0.00 0.00 85 1019.1
20260502062722 30 0.0 0.0 0.00 0.00 0.00 86 1019.3
20260502062221 29 0.0 0.0 0.00 0.00 0.00 87 1019.5
20260502061722 30 0.0 0.0 0.00 0.00 0.00 85 1019.5
20260502061221 29 0.0 0.0 0.00 0.00 0.00 86 1019.7
20260502060722 29 0.0 0.0 0.00 0.00 0.00 86 1019.9
20260502060222 30 0.0 0.0 0.00 0.00 0.00 85 1019.9
20260502055721 30 0.0 0.0 0.00 0.00 0.00 85 1020.0
20260502055222 31 0.0 0.0 0.00 0.00 0.00 85 1020.0
20260502054721 32 0.0 0.0 0.00 0.00 0.00 81 1020.0
20260502054222 31 0.0 0.0 0.00 0.00 0.00 84 1020.1
20260502053721 31 0.0 0.0 0.00 0.00 0.00 84 1019.9
20260502053221 31 0.0 0.0 0.00 0.00 0.00 82 1019.9
20260502052722 31 0.0 0.0 0.00 0.00 0.00 83 1020.2
20260502052221 31 0.0 0.0 0.00 0.00 0.00 85 1020.2
20260502051722 31 0.0 0.0 0.00 0.00 0.00 85 1020.3
20260502051221 31 0.0 0.0 0.00 0.00 0.00 84 1020.3
20260502050722 31 0.0 0.0 0.00 0.00 0.00 85 1020.3
20260502050221 31 0.0 0.0 0.00 0.00 0.00 85 1020.3
20260502045722 30 0.0 0.0 0.00 0.00 0.00 88 1020.2
20260502045222 30 0.0 0.0 0.00 0.00 0.00 87 1020.2
20260502044721 30 0.0 0.0 0.00 0.00 0.00 88 1020.3
20260502044221 31 0.0 0.0 0.00 0.00 0.00 87 1020.3
20260502043722 30 0.0 0.0 0.00 0.00 0.00 87 1020.4
20260502043221 30 0.0 0.0 0.00 0.00 0.00 87 1020.6
20260502042721 30 0.0 0.0 0.00 0.00 0.00 87 1020.8
20260502042221 30 0.0 0.0 0.00 0.00 0.00 88 1020.9
20260502041722 29 0.0 0.0 0.00 0.00 0.00 88 1021.0
20260502041222 29 0.0 0.0 0.00 0.00 0.00 88 1021.0
20260502040721 29 0.0 0.0 0.00 0.00 0.00 88 1020.9
20260502040222 28 0.0 0.0 0.00 0.00 0.00 89 1021.0
20260502035721 28 0.0 0.0 0.00 0.00 0.00 88 1021.2
20260502035221 28 0.0 0.0 0.00 0.00 0.00 89 1021.3
20260502034721 27 0.0 0.0 0.00 0.00 0.00 92 1021.4
20260502034222 27 0.0 0.0 0.00 0.00 0.00 94 1021.5
20260502033721 28 0.0 0.0 0.00 0.00 0.00 91 1021.4
20260502033222 28 0.0 0.0 0.00 0.00 0.00 88 1021.5
20260502032722 29 0.0 0.0 0.00 0.00 0.00 87 1021.5
20260502032221 29 0.0 0.0 0.00 0.00 0.00 87 1021.4
20260502031722 29 0.0 0.0 0.00 0.00 0.00 88 1021.3
20260502031221 29 0.0 0.0 0.00 0.00 0.00 87 1021.3
20260502030721 29 0.0 0.0 0.00 0.00 0.00 87 1021.3
20260502030221 29 0.0 0.0 0.00 0.00 0.00 87 1021.3
20260502025721 29 0.0 0.0 0.00 0.00 0.00 87 1021.2
20260502025221 29 0.0 0.0 0.00 0.00 0.00 87 1021.2
20260502024725 29 0.0 0.0 0.00 0.00 0.00 87 1021.2
20260502024221 29 0.0 0.0 0.00 0.00 0.00 87 1021.0
20260502023722 29 0.0 0.0 0.00 0.00 0.00 87 1021.0
20260502023221 29 0.0 0.0 0.00 0.00 0.00 88 1021.1
20260502022722 30 0.0 0.0 0.00 0.00 0.00 87 1021.3
20260502022221 30 0.0 0.0 0.00 0.00 0.00 87 1021.5
20260502021721 30 0.0 0.0 0.00 0.00 0.00 88 1021.3
20260502021221 30 0.0 0.0 0.00 0.00 0.00 87 1021.2
20260502020721 30 0.0 0.0 0.00 0.00 0.00 88 1021.1
20260502020221 30 0.0 0.0 0.00 0.00 0.00 87 1021.1
20260502015721 30 0.0 0.0 0.00 0.00 0.00 88 1021.0
20260502015221 29 0.0 0.0 0.00 0.00 0.00 89 1020.9
20260502014721 29 0.0 0.0 0.00 0.00 0.00 89 1021.0
20260502014222 29 0.0 0.0 0.00 0.00 0.00 89 1021.0
20260502013722 29 0.0 0.0 0.00 0.00 0.00 90 1021.0
20260502013222 29 0.0 0.0 0.00 0.00 0.00 90 1021.0
20260502012722 29 0.0 0.0 0.00 0.00 0.00 90 1020.9
20260502012221 28 0.0 0.0 0.00 0.00 0.00 90 1020.9
20260502011722 28 0.0 0.0 0.00 0.00 0.00 90 1020.7
20260502011221 28 0.0 0.0 0.00 0.00 0.00 90 1020.7
20260502010721 28 0.0 0.0 0.00 0.00 0.00 90 1020.6
20260502010221 28 0.0 0.0 0.00 0.00 0.00 90 1020.5
20260502005721 28 0.0 0.0 0.00 0.00 0.00 90 1020.5
20260502005221 28 0.0 0.0 0.00 0.00 0.00 90 1020.3
20260502004721 28 0.0 0.0 0.00 0.00 0.00 90 1020.2
20260502004221 28 0.0 0.0 0.00 0.00 0.00 90 1020.1
20260502003721 28 0.0 0.0 0.00 0.00 0.00 90 1020.1
20260502003221 28 0.0 0.0 0.00 0.00 0.00 91 1020.0
20260502002721 28 0.0 0.0 0.00 0.00 0.00 90 1020.0
20260502002221 28 0.0 0.0 0.00 0.00 0.00 91 1020.0
20260502001721 28 0.0 0.0 0.00 0.00 0.00 90 1019.9
20260502001221 28 0.0 0.0 0.00 0.00 0.00 91 1019.9
20260502000721 28 0.0 0.0 0.00 0.00 0.00 90 1019.9
20260502000221 28 0.0 0.0 0.00 0.00 0.00 90 1019.8
20260501235721 28 0.0 0.0 0.00 0.00 0.00 90 1019.7
20260501235221 28 0.0 0.0 0.00 0.00 0.00 90 1019.8
20260501234722 28 0.0 0.0 0.00 0.00 0.00 90 1019.6
20260501234221 28 0.0 0.0 0.00 0.00 0.00 90 1019.5
20260501233721 28 0.0 0.0 0.00 0.00 0.00 90 1019.5